| time (UTC) | temp C | wind direction | speed KPH | gust KPH | rain 1hr cm | rain 24hr cm | rain mn cm | humidity % | barometer mb |
| 20260505205452 | 10 | 12 | 12.9 | 24.1 | 0.00 | 0.00 | 0.00 | 84 | 1009.5 |
| 20260505203951 | 10 | 19 | 17.7 | 24.1 | 0.00 | 0.00 | 0.00 | 83 | 1009.5 |
| 20260505202451 | 10 | 14 | 12.9 | 24.1 | 0.00 | 0.00 | 0.00 | 82 | 1009.5 |
| 20260505200951 | 10 | 10 | 12.9 | 24.1 | 0.00 | 0.00 | 0.00 | 82 | 1009.4 |
| 20260505195450 | 10 | 11 | 9.7 | 20.9 | 0.00 | 0.00 | 0.00 | 82 | 1009.4 |
| 20260505193949 | 10 | 10 | 9.7 | 17.7 | 0.00 | 0.00 | 0.00 | 83 | 1009.3 |
| 20260505192448 | 10 | 1 | 9.7 | 17.7 | 0.00 | 0.00 | 0.00 | 82 | 1009.2 |
| 20260505190948 | 10 | 5 | 9.7 | 17.7 | 0.00 | 0.00 | 0.00 | 83 | 1009.1 |
| 20260505185447 | 10 | 4 | 9.7 | 17.7 | 0.00 | 0.00 | 0.00 | 83 | 1009.2 |
| 20260505183947 | 10 | 4 | 9.7 | 17.7 | 0.00 | 0.00 | 0.00 | 83 | 1009.2 |
| 20260505182446 | 10 | 5 | 9.7 | 12.9 | 0.00 | 0.00 | 0.00 | 84 | 1009.2 |
| 20260505180945 | 10 | 12 | 6.4 | 12.9 | 0.00 | 0.00 | 0.00 | 85 | 1009.2 |
| 20260505175445 | 10 | 14 | 9.7 | 12.9 | 0.00 | 0.00 | 0.00 | 85 | 1009.2 |
| 20260505173944 | 10 | 13 | 9.7 | 12.9 | 0.00 | 0.00 | 0.00 | 86 | 1009.3 |
| 20260505172444 | 10 | 6 | 9.7 | 12.9 | 0.00 | 0.00 | 0.00 | 86 | 1009.3 |
| 20260505170943 | 10 | 10 | 9.7 | 12.9 | 0.00 | 0.00 | 0.00 | 85 | 1009.5 |
| 20260505165443 | 10 | 8 | 9.7 | 12.9 | 0.00 | 0.00 | 0.00 | 86 | 1009.5 |
| 20260505163942 | 10 | 22 | 6.4 | 17.7 | 0.00 | 0.00 | 0.00 | 86 | 1009.6 |
| 20260505162441 | 10 | 23 | 9.7 | 17.7 | 0.00 | 0.00 | 0.00 | 85 | 1009.6 |
| 20260505160940 | 10 | 36 | 9.7 | 17.7 | 0.00 | 0.00 | 0.00 | 85 | 1009.6 |
| 20260505152439 | 10 | 30 | 12.9 | 20.9 | 0.00 | 0.00 | 0.00 | 86 | 1010.0 |
| 20260505150938 | 10 | 28 | 17.7 | 20.9 | 0.00 | 0.00 | 0.00 | 86 | 1010.0 |
| 20260505123932 | 10 | 19 | 12.9 | 20.9 | 0.00 | 0.00 | 0.00 | 91 | 1011.0 |
| 20260505122432 | 10 | 28 | 9.7 | 20.9 | 0.00 | 0.00 | 0.00 | 93 | 1011.0 |
| 20260505120931 | 10 | 39 | 12.9 | 24.1 | 0.00 | 0.00 | 0.00 | 93 | 1011.1 |
| 20260505115430 | 8 | 32 | 17.7 | 24.1 | 0.00 | 0.00 | 0.00 | 94 | 1011.2 |
| 20260505113929 | 8 | 31 | 17.7 | 24.1 | 0.00 | 0.00 | 0.00 | 95 | 1011.2 |
| 20260505112429 | 8 | 41 | 12.9 | 24.1 | 0.00 | 0.00 | 0.00 | 91 | 1011.4 |
| 20260505110929 | 8 | 29 | 17.7 | 24.1 | 0.00 | 0.00 | 0.00 | 92 | 1011.4 |
| 20260505100927 | 8 | 22 | 12.9 | 24.1 | 0.00 | 0.00 | 0.00 | 94 | 1011.6 |
| 20260505095427 | 8 | 38 | 17.7 | 27.4 | 0.00 | 0.00 | 0.00 | 93 | 1011.6 |
| 20260505093926 | 8 | 30 | 17.7 | 32.2 | 0.00 | 0.00 | 0.00 | 92 | 1011.7 |
| 20260505092426 | 7 | 28 | 17.7 | 27.4 | 0.00 | 0.00 | 0.00 | 93 | 1011.5 |
| 20260505090926 | 7 | 25 | 17.7 | 27.4 | 0.00 | 0.00 | 0.00 | 93 | 1011.6 |
| 20260505085425 | 7 | 18 | 12.9 | 24.1 | 0.00 | 0.00 | 0.00 | 95 | 1011.7 |
| 20260505083924 | 7 | 24 | 17.7 | 24.1 | 0.00 | 0.00 | 0.00 | 95 | 1011.8 |
| 20260505082423 | 7 | 21 | 12.9 | 24.1 | 0.00 | 0.00 | 0.00 | 94 | 1011.9 |
| 20260505080923 | 7 | 19 | 12.9 | 27.4 | 0.00 | 0.00 | 0.00 | 95 | 1011.7 |
| 20260505075422 | 7 | 18 | 17.7 | 27.4 | 0.00 | 0.00 | 0.00 | 95 | 1011.8 |
| 20260505073922 | 7 | 21 | 12.9 | 20.9 | 0.00 | 0.00 | 0.00 | 96 | 1011.9 |
| 20260505072421 | 7 | 22 | 12.9 | 20.9 | 0.00 | 0.00 | 0.00 | 96 | 1011.9 |
| 20260505070921 | 7 | 22 | 12.9 | 20.9 | 0.00 | 0.00 | 0.00 | 96 | 1011.9 |
| 20260505065419 | 7 | 22 | 12.9 | 20.9 | 0.00 | 0.00 | 0.00 | 96 | 1011.9 |
| 20260505063919 | 7 | 27 | 12.9 | 24.1 | 0.00 | 0.00 | 0.00 | 97 | 1011.8 |
| 20260505062420 | 7 | 24 | 12.9 | 24.1 | 0.00 | 0.00 | 0.00 | 97 | 1011.8 |
| 20260505060919 | 6 | 19 | 12.9 | 20.9 | 0.00 | 0.00 | 0.00 | 97 | 1011.7 |
| 20260505055418 | 6 | 19 | 12.9 | 20.9 | 0.00 | 0.00 | 0.00 | 98 | 1011.7 |
| 20260505053917 | 7 | 25 | 17.7 | 20.9 | 0.00 | 0.00 | 0.00 | 97 | 1011.6 |
| 20260505052417 | 7 | 27 | 12.9 | 20.9 | 0.00 | 0.00 | 0.00 | 97 | 1011.6 |
| 20260505050917 | 7 | 28 | 12.9 | 20.9 | 0.00 | 0.00 | 0.00 | 97 | 1011.6 |
| 20260505040914 | 7 | 28 | 17.7 | 27.4 | 0.15 | 0.00 | 0.00 | 97 | 1011.5 |
| 20260505035413 | 7 | 21 | 12.9 | 20.9 | 0.15 | 0.00 | 0.00 | 98 | 1011.6 |
| 20260505033912 | 7 | 24 | 12.9 | 24.1 | 0.25 | 0.00 | 0.00 | 97 | 1011.8 |
| 20260505032412 | 7 | 18 | 12.9 | 24.1 | 0.20 | 0.00 | 0.00 | 98 | 1011.7 |
| 20260505030912 | 8 | 10 | 12.9 | 24.1 | 0.30 | 0.00 | 0.00 | 98 | 1011.6 |
| 20260505025412 | 8 | 12 | 17.7 | 24.1 | 0.28 | 0.00 | 0.00 | 97 | 1011.6 |
| 20260505023911 | 10 | 358 | 12.9 | 20.9 | 0.18 | 0.00 | 0.00 | 99 | 1011.7 |
| 20260505022412 | 10 | 351 | 12.9 | 20.9 | 0.15 | 0.00 | 0.00 | 99 | 1011.7 |
| 20260505020911 | 10 | 2 | 12.9 | 17.7 | 0.28 | 0.00 | 0.00 | 99 | 1011.7 |
| 20260505015411 | 10 | 8 | 9.7 | 17.7 | 0.28 | 0.00 | 0.00 | 99 | 1011.7 |
| 20260505013910 | 10 | 14 | 9.7 | 17.7 | 0.10 | 0.00 | 0.00 | 99 | 1011.8 |
| 20260505012409 | 10 | 9 | 9.7 | 12.9 | 0.10 | 0.00 | 0.00 | 99 | 1011.8 |
| 20260505010909 | 10 | 15 | 9.7 | 17.7 | 0.08 | 0.00 | 0.00 | 99 | 1011.9 |
| 20260505005409 | 10 | 13 | 9.7 | 17.7 | 0.05 | 0.00 | 0.00 | 99 | 1011.9 |
| 20260505003909 | 10 | 9 | 9.7 | 17.7 | 0.05 | 0.00 | 0.00 | 98 | 1012.1 |
| 20260505002409 | 10 | 3 | 9.7 | 17.7 | 0.03 | 0.00 | 0.00 | 98 | 1012.3 |
| 20260505000908 | 10 | 0 | 9.7 | 17.7 | 0.05 | 0.00 | 0.00 | 97 | 1012.3 |
| 20260504235408 | 10 | 11 | 9.7 | 17.7 | 0.10 | 0.00 | 0.00 | 97 | 1012.4 |
| 20260504233907 | 11 | 9 | 9.7 | 12.9 | 0.03 | 0.00 | 0.00 | 97 | 1012.5 |
| 20260504232406 | 11 | 0 | 6.4 | 12.9 | 0.03 | 0.00 | 0.00 | 98 | 1012.6 |
| 20260504230906 | 11 | 10 | 9.7 | 12.9 | 0.00 | 0.00 | 0.00 | 98 | 1012.6 |
| 20260504225406 | 11 | 11 | 6.4 | 17.7 | 0.00 | 0.00 | 0.00 | 98 | 1012.6 |
| 20260504223906 | 11 | 24 | 9.7 | 17.7 | 0.03 | 0.00 | 0.00 | 98 | 1012.6 |
| 20260504222406 | 11 | 18 | 9.7 | 12.9 | 0.03 | 0.00 | 0.00 | 97 | 1012.7 |
| 20260504220905 | 12 | 15 | 6.4 | 12.9 | 0.08 | 0.00 | 0.00 | 98 | 1012.9 |
| 20260504215405 | 12 | 24 | 9.7 | 17.7 | 0.08 | 0.00 | 0.00 | 97 | 1012.9 |
| 20260504213904 | 12 | 10 | 9.7 | 12.9 | 0.03 | 0.00 | 0.00 | 97 | 1013.0 |
| 20260504212403 | 12 | 4 | 9.7 | 12.9 | 0.08 | 0.00 | 0.00 | 97 | 1013.0 |
| 20260504210903 | 12 | 23 | 9.7 | 12.9 | 0.13 | 0.00 | 0.00 | 96 | 1013.1 |